RYR19NG EPMO-LIMC

Flight info

Callsign RYR19NG
Flight time 2h 30m
Altitude 38000
Route EVINA DCT NAVUR N744 TUSIN DCT NAVTI DCT LIMRA DCT OBEDI DCT DETSA DCT BAKOR DCT NAXAV DCT RENTA DCT ATPED DCT LUSIL DCT EVRIP
Aircraft B738/M-SDE3FGILRWY/SB1

Departure

Time 2026-05-05 18:32
Airport Warsaw Modlin Airport (EPMO)

Arrival

Time 2026-05-05 21:02
Airport Milan Malpensa International Airport (LIMC)
Time Latitude Longitude Altitude Speed Heading
2026-05-05 17:59 52.44751 20.65337 337 ft 0 kts 206°
2026-05-05 18:22 52.44760 20.65345 332 ft 4 kts 207°
2026-05-05 18:23 52.44783 20.65366 333 ft 4 kts 217°
2026-05-05 18:23 52.44802 20.65396 332 ft 4 kts 245°
2026-05-05 18:23 52.44806 20.65415 332 ft 0 kts 261°
2026-05-05 18:26 52.44805 20.65413 332 ft 0 kts 254°
2026-05-05 18:27 52.44800 20.65412 333 ft 1 kts 198°
2026-05-05 18:27 52.44797 20.65419 333 ft 1 kts 128°
2026-05-05 18:27 52.44802 20.65439 333 ft 4 kts 71°
2026-05-05 18:27 52.44815 20.65517 336 ft 10 kts 81°
2026-05-05 18:28 52.44842 20.65831 335 ft 15 kts 81°
2026-05-05 18:28 52.44859 20.65994 337 ft 14 kts 79°
2026-05-05 18:28 52.44874 20.66149 337 ft 14 kts 82°
2026-05-05 18:29 52.44889 20.66312 337 ft 16 kts 81°
2026-05-05 18:29 52.44909 20.66509 337 ft 18 kts 81°
2026-05-05 18:29 52.44926 20.66713 336 ft 19 kts 81°
2026-05-05 18:29 52.44946 20.66932 337 ft 19 kts 82°
2026-05-05 18:30 52.45001 20.67079 336 ft 16 kts
2026-05-05 18:30 52.45111 20.67054 333 ft 16 kts 351°
2026-05-05 18:30 52.45215 20.67020 334 ft 15 kts 340°
2026-05-05 18:30 52.45269 20.66986 334 ft 4 kts 336°
2026-05-05 18:31 52.45284 20.66956 337 ft 4 kts 269°
2026-05-05 18:31 52.45274 20.66816 336 ft 36 kts 262°
2026-05-05 18:31 52.45197 20.66007 338 ft 106 kts 261°
2026-05-05 18:31 52.45001 20.63881 480 ft 164 kts 263°
2026-05-05 18:32 52.44784 20.62021 1062 ft 172 kts 258°
2026-05-05 18:32 52.44519 20.59990 1543 ft 190 kts 260°
2026-05-05 18:32 52.44302 20.58540 1924 ft 199 kts 258°
2026-05-05 18:32 52.43989 20.56217 2396 ft 219 kts 258°
2026-05-05 18:33 52.43737 20.53781 3128 ft 211 kts 259°
2026-05-05 18:33 52.43551 20.51372 3855 ft 214 kts 261°
2026-05-05 18:33 52.43362 20.48901 4432 ft 226 kts 258°
2026-05-05 18:33 52.42680 20.46533 4690 ft 247 kts 222°
2026-05-05 18:34 52.41161 20.45200 5411 ft 252 kts 200°
2026-05-05 18:34 52.39499 20.44244 6225 ft 255 kts 200°
2026-05-05 18:34 52.37844 20.43165 7022 ft 256 kts 205°
2026-05-05 18:34 52.36223 20.41915 7837 ft 260 kts 206°
2026-05-05 18:35 52.34566 20.40611 8773 ft 262 kts 207°
2026-05-05 18:35 52.32938 20.39325 9673 ft 265 kts 207°
2026-05-05 18:35 52.31253 20.37996 10282 ft 278 kts 207°
2026-05-05 18:35 52.29426 20.36556 10468 ft 305 kts 207°
2026-05-05 18:36 52.27461 20.35016 10944 ft 319 kts 207°
2026-05-05 18:36 52.25443 20.33444 11688 ft 323 kts 207°
2026-05-05 18:36 52.23400 20.31859 12526 ft 326 kts 207°
2026-05-05 18:36 52.21344 20.30265 13382 ft 328 kts 207°
2026-05-05 18:37 52.19269 20.28661 14099 ft 333 kts 207°
2026-05-05 18:37 52.17158 20.27029 14726 ft 339 kts 207°
2026-05-05 18:37 52.15007 20.25369 15364 ft 345 kts 207°
2026-05-05 18:37 52.12822 20.23685 16025 ft 350 kts 207°
2026-05-05 18:38 52.10606 20.21979 16663 ft 355 kts 207°
2026-05-05 18:38 52.08355 20.20248 17288 ft 361 kts 207°
2026-05-05 18:38 52.06069 20.18492 17919 ft 366 kts 207°
2026-05-05 18:38 52.03747 20.16711 18491 ft 371 kts 207°
2026-05-05 18:39 52.01405 20.14917 19098 ft 373 kts 207°
2026-05-05 18:39 51.99049 20.13112 19713 ft 376 kts 207°
2026-05-05 18:39 51.96683 20.11294 20329 ft 378 kts 206°
2026-05-05 18:39 51.94286 20.09463 20857 ft 383 kts 206°
2026-05-05 18:40 51.91864 20.07616 21373 ft 387 kts 206°
2026-05-05 18:40 51.89414 20.05753 21924 ft 391 kts 206°
2026-05-05 18:40 51.86938 20.03870 22460 ft 394 kts 206°
2026-05-05 18:40 51.84447 20.01978 22977 ft 398 kts 206°
2026-05-05 18:41 51.81958 20.00090 23375 ft 404 kts 206°
2026-05-05 18:41 51.79403 19.98153 23596 ft 407 kts 206°
2026-05-05 18:41 51.76836 19.96211 23837 ft 407 kts 206°
2026-05-05 18:41 51.74264 19.94266 24232 ft 410 kts 206°
2026-05-05 18:42 51.71682 19.92317 24800 ft 409 kts 206°
2026-05-05 18:42 51.69107 19.90376 25305 ft 409 kts 206°
2026-05-05 18:42 51.66522 19.88421 25733 ft 412 kts 207°
2026-05-05 18:42 51.63919 19.86444 26118 ft 415 kts 207°
2026-05-05 18:43 51.61296 19.84462 26534 ft 418 kts 207°
2026-05-05 18:43 51.58659 19.82479 26950 ft 420 kts 207°
2026-05-05 18:43 51.56005 19.80489 27346 ft 422 kts 206°
2026-05-05 18:43 51.53336 19.78492 27690 ft 425 kts 206°
2026-05-05 18:44 51.50640 19.76478 28057 ft 428 kts 206°
2026-05-05 18:44 51.47938 19.74462 28447 ft 430 kts 206°
2026-05-05 18:44 51.45221 19.72438 28822 ft 432 kts 206°
2026-05-05 18:44 51.42488 19.70404 29176 ft 434 kts 206°
2026-05-05 18:45 51.39739 19.68361 29523 ft 436 kts 206°
2026-05-05 18:45 51.36978 19.66311 29858 ft 438 kts 206°
2026-05-05 18:45 51.34209 19.64257 30131 ft 440 kts 206°
2026-05-05 18:45 51.31421 19.62193 30419 ft 442 kts 206°
2026-05-05 18:46 51.28634 19.60133 30800 ft 441 kts 206°
2026-05-05 18:46 51.25858 19.58084 31238 ft 438 kts 207°
2026-05-05 18:46 51.23095 19.56047 31632 ft 437 kts 207°
2026-05-05 18:46 51.20338 19.54017 31973 ft 437 kts 207°
2026-05-05 18:47 51.17574 19.51983 32313 ft 437 kts 207°
2026-05-05 18:47 51.14811 19.49954 32689 ft 436 kts 207°
2026-05-05 18:47 51.12062 19.47937 33058 ft 435 kts 206°
2026-05-05 18:47 51.09310 19.45921 33397 ft 435 kts 206°
2026-05-05 18:48 51.06564 19.43911 33733 ft 435 kts 206°
2026-05-05 18:48 51.03814 19.41902 34046 ft 434 kts 206°
2026-05-05 18:48 51.01078 19.39906 34367 ft 432 kts 206°
2026-05-05 18:48 50.98347 19.37915 34680 ft 431 kts 206°
2026-05-05 18:49 50.95624 19.35943 34965 ft 431 kts 206°
2026-05-05 18:49 50.92897 19.33978 35219 ft 431 kts 206°
2026-05-05 18:49 50.90173 19.32008 35475 ft 430 kts 206°
2026-05-05 18:49 50.87460 19.30043 35753 ft 428 kts 206°
2026-05-05 18:50 50.81998 19.26085 35806 ft 433 kts 206°
2026-05-05 18:50 50.76543 19.22146 35798 ft 428 kts 206°
2026-05-05 18:51 50.71187 19.18289 35802 ft 425 kts 206°
2026-05-05 18:51 50.65811 19.14427 35805 ft 424 kts 206°
2026-05-05 18:52 50.60448 19.10584 35829 ft 424 kts 206°
2026-05-05 18:52 50.55081 19.06749 35833 ft 424 kts 206°
2026-05-05 18:53 50.49695 19.02910 35850 ft 427 kts 206°
2026-05-05 18:53 50.46975 19.00974 35979 ft 430 kts 206°
2026-05-05 18:53 50.44259 18.99044 36267 ft 428 kts 206°
2026-05-05 18:54 50.41549 18.97122 36615 ft 425 kts 206°
2026-05-05 18:54 50.38857 18.95214 36912 ft 424 kts 206°
2026-05-05 18:54 50.36171 18.93312 37145 ft 424 kts 206°
2026-05-05 18:54 50.33484 18.91412 37380 ft 424 kts 206°
2026-05-05 18:55 50.30802 18.89518 37639 ft 423 kts 206°
2026-05-05 18:55 50.28123 18.87628 37841 ft 423 kts 206°
2026-05-05 18:55 50.22727 18.83828 37818 ft 425 kts 205°
2026-05-05 18:56 50.17356 18.80057 37813 ft 421 kts 205°
2026-05-05 18:56 50.12062 18.76347 37814 ft 419 kts 205°
2026-05-05 18:57 50.06752 18.72631 37773 ft 417 kts 205°
2026-05-05 18:57 50.01481 18.68955 37809 ft 415 kts 205°
2026-05-05 18:58 49.96205 18.65283 37821 ft 416 kts 205°
2026-05-05 18:58 49.90913 18.61608 37827 ft 418 kts 205°
2026-05-05 18:59 49.85788 18.57376 37822 ft 418 kts 219°
2026-05-05 18:59 49.81784 18.50903 37817 ft 418 kts 236°
2026-05-05 19:00 49.78533 18.43417 37815 ft 420 kts 236°
2026-05-05 19:00 49.75284 18.35878 37816 ft 422 kts 236°
2026-05-05 19:01 49.72001 18.28344 37810 ft 423 kts 236°
2026-05-05 19:01 49.68702 18.20838 37799 ft 422 kts 236°
2026-05-05 19:02 49.65402 18.13363 37797 ft 420 kts 235°
2026-05-05 19:02 49.62115 18.05940 37800 ft 418 kts 235°
2026-05-05 19:03 49.58839 17.98561 37804 ft 416 kts 235°
2026-05-05 19:03 49.55575 17.91230 37812 ft 414 kts 235°
2026-05-05 19:04 49.52318 17.83935 37815 ft 413 kts 235°
2026-05-05 19:04 49.49064 17.76666 37809 ft 412 kts 235°
2026-05-05 19:05 49.45812 17.69420 37825 ft 412 kts 235°
2026-05-05 19:05 49.42549 17.62172 37822 ft 413 kts 235°
2026-05-05 19:06 49.39272 17.54910 37821 ft 414 kts 235°
2026-05-05 19:06 49.36000 17.47680 37820 ft 416 kts 235°
2026-05-05 19:07 49.32700 17.40408 37812 ft 417 kts 235°
2026-05-05 19:07 49.29372 17.33094 37815 ft 418 kts 235°
2026-05-05 19:08 49.26038 17.25787 37811 ft 419 kts 235°
2026-05-05 19:08 49.22691 17.18474 37806 ft 419 kts 235°
2026-05-05 19:09 49.19340 17.11175 37804 ft 419 kts 235°
2026-05-05 19:09 49.15990 17.03894 37810 ft 419 kts 235°
2026-05-05 19:10 49.12640 16.96630 37790 ft 418 kts 235°
2026-05-05 19:10 49.09295 16.89397 37794 ft 416 kts 234°
2026-05-05 19:11 49.05967 16.82219 37797 ft 414 kts 234°
2026-05-05 19:11 49.02644 16.75070 37797 ft 413 kts 234°
2026-05-05 19:12 48.99328 16.67957 37792 ft 411 kts 234°
2026-05-05 19:12 48.96015 16.60868 37785 ft 410 kts 234°
2026-05-05 19:13 48.92727 16.53848 37790 ft 410 kts 234°
2026-05-05 19:13 48.89411 16.46789 37768 ft 410 kts 234°
2026-05-05 19:14 48.86089 16.39733 37772 ft 411 kts 234°
2026-05-05 19:14 48.82751 16.32659 37760 ft 413 kts 234°
2026-05-05 19:15 48.79402 16.25578 37740 ft 414 kts 234°
2026-05-05 19:15 48.76034 16.18484 37750 ft 415 kts 234°
2026-05-05 19:16 48.72652 16.11377 37740 ft 416 kts 234°
2026-05-05 19:16 48.69265 16.04263 37742 ft 417 kts 234°
2026-05-05 19:17 48.65866 15.97139 37731 ft 418 kts 234°
2026-05-05 19:17 48.62462 15.90016 37726 ft 418 kts 234°
2026-05-05 19:18 48.59055 15.82907 37731 ft 417 kts 234°
2026-05-05 19:18 48.55650 15.75819 37748 ft 416 kts 234°
2026-05-05 19:19 48.52254 15.68769 37722 ft 415 kts 234°
2026-05-05 19:19 48.48884 15.61793 37725 ft 413 kts 234°
2026-05-05 19:20 48.45506 15.54815 37726 ft 411 kts 234°
2026-05-05 19:20 48.42142 15.47884 37728 ft 409 kts 234°
2026-05-05 19:21 48.39332 15.42110 37732 ft 407 kts 234°
2026-05-05 19:21 48.35444 15.34139 37732 ft 406 kts 234°
2026-05-05 19:22 48.32104 15.27309 37738 ft 406 kts 234°
2026-05-05 19:22 48.29301 15.21593 37740 ft 406 kts 234°
2026-05-05 19:23 48.25946 15.14765 37737 ft 407 kts 234°
2026-05-05 19:23 48.22601 15.07973 37757 ft 408 kts 234°
2026-05-05 19:24 48.19193 15.01072 37751 ft 410 kts 234°
2026-05-05 19:24 48.15812 14.94242 37758 ft 412 kts 234°
2026-05-05 19:25 48.12389 14.87348 37762 ft 413 kts 234°
2026-05-05 19:25 48.08952 14.80439 37762 ft 414 kts 234°
2026-05-05 19:26 48.05509 14.73534 37767 ft 414 kts 234°
2026-05-05 19:26 48.02061 14.66639 37766 ft 414 kts 234°
2026-05-05 19:27 47.98616 14.59764 37751 ft 414 kts 233°
2026-05-05 19:27 47.95170 14.52897 37772 ft 413 kts 233°
2026-05-05 19:28 47.91728 14.46064 37777 ft 412 kts 233°
2026-05-05 19:28 47.88273 14.39277 37794 ft 410 kts 233°
2026-05-05 19:29 47.84799 14.32533 37781 ft 410 kts 233°
2026-05-05 19:29 47.81337 14.25809 37800 ft 409 kts 233°
2026-05-05 19:30 47.77902 14.19145 37801 ft 408 kts 232°
2026-05-05 19:30 47.74448 14.12454 37818 ft 408 kts 232°
2026-05-05 19:31 47.70990 14.05772 37802 ft 408 kts 232°
2026-05-05 19:31 47.67529 13.99100 37826 ft 408 kts 232°
2026-05-05 19:32 47.64061 13.92432 37832 ft 409 kts 232°
2026-05-05 19:32 47.60583 13.85760 37835 ft 409 kts 232°
2026-05-05 19:33 47.57101 13.79095 37833 ft 409 kts 232°
2026-05-05 19:33 47.53612 13.72435 37835 ft 409 kts 232°
2026-05-05 19:34 47.50115 13.65777 37839 ft 410 kts 232°
2026-05-05 19:35 47.44865 13.55807 37844 ft 410 kts 231°
2026-05-05 19:35 47.41354 13.49156 37849 ft 410 kts 232°
2026-05-05 19:36 47.37839 13.42512 37857 ft 411 kts 232°
2026-05-05 19:36 47.34341 13.35915 37868 ft 411 kts 231°
2026-05-05 19:37 47.30869 13.29249 37859 ft 409 kts 233°
2026-05-05 19:37 47.27544 13.22475 37884 ft 407 kts 234°
2026-05-05 19:38 47.24250 13.15735 37864 ft 404 kts 233°
2026-05-05 19:38 47.20963 13.09058 37877 ft 402 kts 233°
2026-05-05 19:39 47.17676 13.02423 37883 ft 400 kts 233°
2026-05-05 19:39 47.14399 12.95829 37913 ft 399 kts 232°
2026-05-05 19:40 47.11118 12.89244 37912 ft 400 kts 233°
2026-05-05 19:40 47.07829 12.82659 37919 ft 401 kts 233°
2026-05-05 19:41 47.04526 12.76061 37927 ft 402 kts 232°
2026-05-05 19:41 47.01213 12.69462 37944 ft 402 kts 233°
2026-05-05 19:42 46.97899 12.62866 37933 ft 403 kts 232°
2026-05-05 19:42 46.94596 12.56313 37949 ft 403 kts 233°
2026-05-05 19:43 46.91263 12.49716 37974 ft 404 kts 232°
2026-05-05 19:43 46.87918 12.43110 37979 ft 404 kts 233°
2026-05-05 19:44 46.84570 12.36503 37996 ft 405 kts 232°
2026-05-05 19:44 46.81208 12.29900 38033 ft 406 kts 233°
2026-05-05 19:45 46.78377 12.22795 38040 ft 406 kts 242°
2026-05-05 19:45 46.75843 12.15434 37954 ft 405 kts 242°
2026-05-05 19:46 46.73300 12.08112 37948 ft 403 kts 241°
2026-05-05 19:46 46.70756 12.00849 37959 ft 401 kts 241°
2026-05-05 19:47 46.68218 11.93625 37953 ft 401 kts 241°
2026-05-05 19:47 46.65676 11.86415 37954 ft 399 kts 241°
2026-05-05 19:48 46.63161 11.79295 37964 ft 398 kts 241°
2026-05-05 19:48 46.60620 11.72130 37963 ft 398 kts 241°
2026-05-05 19:49 46.58081 11.64977 37974 ft 398 kts 241°
2026-05-05 19:49 46.55538 11.57819 37972 ft 399 kts 241°
2026-05-05 19:50 46.52986 11.50657 37968 ft 400 kts 241°
2026-05-05 19:50 46.50427 11.43480 37963 ft 400 kts 240°
2026-05-05 19:51 46.47863 11.36303 37846 ft 403 kts 240°
2026-05-05 19:51 46.46569 11.32694 37588 ft 403 kts 240°
2026-05-05 19:51 46.45305 11.29111 37303 ft 396 kts 241°
2026-05-05 19:51 46.44084 11.25559 37026 ft 389 kts 242°
2026-05-05 19:52 46.42898 11.22083 36755 ft 381 kts 242°
2026-05-05 19:52 46.41730 11.18672 36481 ft 376 kts 242°
2026-05-05 19:52 46.40575 11.15299 36291 ft 372 kts 242°
2026-05-05 19:52 46.39431 11.11962 36045 ft 368 kts 242°
2026-05-05 19:53 46.38295 11.08658 35798 ft 365 kts 242°
2026-05-05 19:53 46.37166 11.05383 35545 ft 362 kts 242°
2026-05-05 19:53 46.36045 11.02137 35291 ft 359 kts 242°
2026-05-05 19:53 46.34934 10.98923 35040 ft 355 kts 242°
2026-05-05 19:54 46.33835 10.95744 34807 ft 352 kts 242°
2026-05-05 19:54 46.32758 10.92636 34533 ft 347 kts 243°
2026-05-05 19:54 46.31682 10.89537 34228 ft 343 kts 242°
2026-05-05 19:54 46.30614 10.86468 33819 ft 340 kts 243°
2026-05-05 19:55 46.29564 10.83450 33621 ft 332 kts 242°
2026-05-05 19:55 46.28530 10.80485 33283 ft 327 kts 242°
2026-05-05 19:55 46.27507 10.77561 32882 ft 325 kts 241°
2026-05-05 19:55 46.26320 10.74813 32513 ft 320 kts 233°
2026-05-05 19:56 46.24859 10.72396 32142 ft 320 kts 226°
2026-05-05 19:56 46.23253 10.70198 31845 ft 316 kts 224°
2026-05-05 19:56 46.21572 10.68156 31498 ft 316 kts 217°
2026-05-05 19:56 46.19611 10.66725 31220 ft 316 kts 206°
2026-05-05 19:57 46.17554 10.65633 30987 ft 315 kts 204°
2026-05-05 19:57 46.16174 10.64946 30814 ft 317 kts 204°
2026-05-05 19:57 46.13329 10.63541 30640 ft 332 kts 204°
2026-05-05 19:57 46.11105 10.62432 30541 ft 344 kts 204°
2026-05-05 19:58 46.08823 10.61293 30325 ft 350 kts 204°
2026-05-05 19:58 46.06526 10.60158 30071 ft 347 kts 204°
2026-05-05 19:58 46.04275 10.59025 29791 ft 337 kts 208°
2026-05-05 19:58 46.02428 10.57079 29173 ft 328 kts 234°
2026-05-05 19:59 46.01337 10.54252 28836 ft 323 kts 244°
2026-05-05 19:59 46.00600 10.51194 28426 ft 324 kts 253°
2026-05-05 19:59 46.00095 10.48054 28049 ft 321 kts 254°
2026-05-05 19:59 45.99618 10.44934 27692 ft 318 kts 254°
2026-05-05 20:00 45.99145 10.41839 27327 ft 316 kts 254°
2026-05-05 20:00 45.98674 10.38766 26953 ft 314 kts 253°
2026-05-05 20:00 45.98201 10.35713 26603 ft 311 kts 253°
2026-05-05 20:00 45.97734 10.32701 26284 ft 309 kts 253°
2026-05-05 20:01 45.97265 10.29697 25919 ft 307 kts 253°
2026-05-05 20:01 45.96797 10.26715 25585 ft 305 kts 253°
2026-05-05 20:01 45.96328 10.23749 25207 ft 304 kts 253°
2026-05-05 20:01 45.95861 10.20800 24894 ft 302 kts 252°
2026-05-05 20:02 45.95395 10.17865 24537 ft 301 kts 252°
2026-05-05 20:02 45.94937 10.14984 24224 ft 300 kts 252°
2026-05-05 20:02 45.94464 10.12024 23874 ft 299 kts 252°
2026-05-05 20:02 45.93998 10.09110 23506 ft 299 kts 252°
2026-05-05 20:03 45.93541 10.06245 23055 ft 299 kts 252°
2026-05-05 20:03 45.93080 10.03366 22867 ft 292 kts 252°
2026-05-05 20:03 45.92623 10.00525 22563 ft 291 kts 252°
2026-05-05 20:03 45.92167 9.97688 22228 ft 291 kts 252°
2026-05-05 20:04 45.91706 9.94833 21903 ft 299 kts 252°
2026-05-05 20:04 45.91224 9.91874 21550 ft 308 kts 252°
2026-05-05 20:04 45.90736 9.88869 21196 ft 310 kts 253°
2026-05-05 20:04 45.90249 9.85858 20822 ft 309 kts 253°
2026-05-05 20:05 45.89764 9.82870 20490 ft 305 kts 253°
2026-05-05 20:05 45.89283 9.79906 20120 ft 305 kts 253°
2026-05-05 20:05 45.88804 9.76947 19766 ft 303 kts 253°
2026-05-05 20:05 45.88327 9.74015 19431 ft 301 kts 253°
2026-05-05 20:06 45.87852 9.71100 19081 ft 300 kts 253°
2026-05-05 20:06 45.87379 9.68198 18770 ft 298 kts 253°
2026-05-05 20:06 45.86908 9.65310 18441 ft 297 kts 253°
2026-05-05 20:06 45.86435 9.62427 18031 ft 296 kts 254°
2026-05-05 20:07 45.85965 9.59587 17723 ft 291 kts 253°
2026-05-05 20:07 45.85498 9.56762 17359 ft 290 kts 254°
2026-05-05 20:07 45.84894 9.54023 17012 ft 287 kts 244°
2026-05-05 20:07 45.84033 9.51461 16691 ft 285 kts 241°
2026-05-05 20:08 45.83125 9.48942 16367 ft 283 kts 241°
2026-05-05 20:08 45.82224 9.46437 16048 ft 282 kts 241°
2026-05-05 20:08 45.81338 9.43938 15719 ft 281 kts 242°
2026-05-05 20:08 45.80460 9.41438 15403 ft 280 kts 242°
2026-05-05 20:09 45.79603 9.38971 15079 ft 279 kts 242°
2026-05-05 20:09 45.78732 9.36454 14774 ft 278 kts 242°
2026-05-05 20:09 45.77885 9.34010 14459 ft 277 kts 242°
2026-05-05 20:09 45.77027 9.31539 14127 ft 277 kts 242°
2026-05-05 20:10 45.76162 9.29040 13781 ft 280 kts 243°
2026-05-05 20:10 45.75295 9.26535 13515 ft 281 kts 243°
2026-05-05 20:10 45.74423 9.24019 13245 ft 282 kts 243°
2026-05-05 20:10 45.73550 9.21500 13056 ft 283 kts 243°
2026-05-05 20:11 45.72671 9.18964 13006 ft 285 kts 243°
2026-05-05 20:11 45.71792 9.16425 12971 ft 283 kts 243°
2026-05-05 20:11 45.70917 9.13909 12702 ft 284 kts 242°
2026-05-05 20:11 45.70029 9.11361 12341 ft 288 kts 242°
2026-05-05 20:12 45.69135 9.08796 11980 ft 287 kts 242°
2026-05-05 20:12 45.68249 9.06244 11663 ft 285 kts 242°
2026-05-05 20:12 45.67379 9.03742 11477 ft 278 kts 242°
2026-05-05 20:12 45.66509 9.01249 11289 ft 276 kts 242°
2026-05-05 20:13 45.65653 8.98803 11106 ft 272 kts 242°
2026-05-05 20:13 45.64827 8.96455 11012 ft 263 kts 242°
2026-05-05 20:13 45.64024 8.94170 10945 ft 253 kts 242°
2026-05-05 20:13 45.63226 8.91908 10557 ft 256 kts 242°
2026-05-05 20:14 45.62427 8.89643 10197 ft 255 kts 241°
2026-05-05 20:14 45.61624 8.87388 9833 ft 254 kts 238°
2026-05-05 20:14 45.60913 8.86080 9547 ft 252 kts 219°
2026-05-05 20:14 45.59385 8.84921 9171 ft 250 kts 195°
2026-05-05 20:15 45.57664 8.84750 8775 ft 250 kts 172°
2026-05-05 20:15 45.56035 8.85591 8387 ft 251 kts 148°
2026-05-05 20:15 45.54793 8.87335 8011 ft 254 kts 123°
2026-05-05 20:15 45.54194 8.89690 7660 ft 255 kts 98°
2026-05-05 20:16 45.54303 8.92188 7413 ft 253 kts 75°
2026-05-05 20:16 45.54978 8.94488 7175 ft 250 kts 64°
2026-05-05 20:16 45.55768 8.96661 7028 ft 243 kts 63°
2026-05-05 20:16 45.56548 8.98787 6985 ft 241 kts 64°
2026-05-05 20:17 45.57313 9.00897 6970 ft 239 kts 64°
2026-05-05 20:17 45.58147 9.02957 6977 ft 243 kts 50°
2026-05-05 20:17 45.59508 9.04391 7009 ft 248 kts 23°
2026-05-05 20:17 45.61179 9.04942 6980 ft 247 kts 358°
2026-05-05 20:18 45.62835 9.04490 6985 ft 241 kts 333°
2026-05-05 20:18 45.64181 9.03133 6982 ft 236 kts 308°
2026-05-05 20:18 45.64997 9.01159 6989 ft 230 kts 285°
2026-05-05 20:18 45.65239 8.98926 6994 ft 227 kts 266°
2026-05-05 20:19 45.64948 8.96740 6984 ft 224 kts 245°
2026-05-05 20:19 45.64260 8.94742 6993 ft 225 kts 241°
2026-05-05 20:19 45.63547 8.92743 6991 ft 226 kts 241°
2026-05-05 20:19 45.62828 8.90732 6995 ft 228 kts 241°
2026-05-05 20:20 45.62106 8.88714 6996 ft 229 kts 241°
2026-05-05 20:20 45.61309 8.86751 6982 ft 229 kts 226°
2026-05-05 20:20 45.59994 8.85558 7000 ft 226 kts 195°
2026-05-05 20:20 45.58438 8.85459 6994 ft 227 kts 168°
2026-05-05 20:21 45.57024 8.86435 6994 ft 230 kts 140°
2026-05-05 20:21 45.56112 8.88303 6989 ft 234 kts 110°
2026-05-05 20:21 45.55977 8.90584 6991 ft 238 kts 81°
2026-05-05 20:21 45.56556 8.92794 7007 ft 240 kts 64°
2026-05-05 20:22 45.57325 8.94916 6989 ft 241 kts 63°
2026-05-05 20:22 45.58099 8.97047 6991 ft 242 kts 64°
2026-05-05 20:22 45.58871 8.99187 6984 ft 243 kts 64°
2026-05-05 20:22 45.59814 9.01176 6960 ft 245 kts 39°
2026-05-05 20:23 45.61337 9.02161 6996 ft 243 kts
2026-05-05 20:23 45.62985 9.01861 6999 ft 240 kts 333°
2026-05-05 20:23 45.64281 9.00428 6986 ft 237 kts 303°
2026-05-05 20:23 45.64881 8.98291 6997 ft 232 kts 272°
2026-05-05 20:24 45.64705 8.96036 6986 ft 229 kts 248°
2026-05-05 20:24 45.64028 8.93978 6940 ft 230 kts 241°
2026-05-05 20:24 45.63278 8.91918 6683 ft 235 kts 241°
2026-05-05 20:24 45.62528 8.89849 6440 ft 235 kts 241°
2026-05-05 20:25 45.61777 8.87771 6185 ft 234 kts 240°
2026-05-05 20:25 45.60745 8.86054 6013 ft 226 kts 209°
2026-05-05 20:25 45.59272 8.85436 6010 ft 222 kts 180°
2026-05-05 20:25 45.57772 8.85905 6001 ft 224 kts 153°
2026-05-05 20:26 45.56610 8.87380 6000 ft 228 kts 123°
2026-05-05 20:26 45.56117 8.89526 5996 ft 233 kts 92°
2026-05-05 20:26 45.56205 8.91840 5989 ft 233 kts 98°
2026-05-05 20:26 45.55527 8.93860 6015 ft 237 kts 140°
2026-05-05 20:27 45.53994 8.94868 6003 ft 250 kts 176°
2026-05-05 20:27 45.52318 8.94573 6005 ft 238 kts 189°
2026-05-05 20:27 45.50725 8.94328 5980 ft 224 kts 184°
2026-05-05 20:27 45.49204 8.94204 5975 ft 215 kts 182°
2026-05-05 20:28 45.47718 8.94121 5983 ft 214 kts 182°
2026-05-05 20:28 45.46221 8.94064 6000 ft 217 kts 181°
2026-05-05 20:28 45.44703 8.94025 6004 ft 219 kts 181°
2026-05-05 20:28 45.43180 8.93997 5991 ft 219 kts 181°
2026-05-05 20:29 45.41663 8.93974 5999 ft 217 kts 181°
2026-05-05 20:29 45.40151 8.93954 5990 ft 217 kts 181°
2026-05-05 20:29 45.38642 8.93948 5985 ft 216 kts 176°
2026-05-05 20:29 45.37167 8.94318 5996 ft 215 kts 168°
2026-05-05 20:30 45.35704 8.94754 5985 ft 214 kts 170°
2026-05-05 20:30 45.34247 8.95161 5980 ft 213 kts 170°
2026-05-05 20:30 45.32795 8.95560 5991 ft 212 kts 171°
2026-05-05 20:30 45.31347 8.95949 5992 ft 211 kts 171°
2026-05-05 20:31 45.29902 8.96341 5993 ft 211 kts 171°
2026-05-05 20:31 45.28458 8.96735 5992 ft 212 kts 171°
2026-05-05 20:31 45.27012 8.97132 5978 ft 212 kts 171°
2026-05-05 20:31 45.25556 8.97531 5971 ft 214 kts 171°
2026-05-05 20:32 45.24096 8.97929 5974 ft 214 kts 170°
2026-05-05 20:32 45.22633 8.98327 5975 ft 215 kts 171°
2026-05-05 20:32 45.21162 8.98721 5977 ft 216 kts 171°
2026-05-05 20:32 45.19685 8.99116 5977 ft 216 kts 171°
2026-05-05 20:33 45.18203 8.99513 5973 ft 217 kts 171°
2026-05-05 20:33 45.16740 8.99893 5976 ft 216 kts 174°
2026-05-05 20:33 45.15284 8.99604 5975 ft 213 kts 207°
2026-05-05 20:33 45.14211 8.98193 5911 ft 217 kts 239°
2026-05-05 20:34 45.13807 8.96104 5715 ft 225 kts 261°
2026-05-05 20:34 45.13673 8.93893 5496 ft 224 kts 263°
2026-05-05 20:34 45.13670 8.91698 5257 ft 226 kts 281°
2026-05-05 20:34 45.14524 8.89859 5025 ft 230 kts 323°
2026-05-05 20:35 45.16032 8.89181 4841 ft 229 kts 352°
2026-05-05 20:35 45.17586 8.88714 4633 ft 229 kts 341°
2026-05-05 20:35 45.19124 8.88069 4417 ft 231 kts 342°
2026-05-05 20:35 45.20676 8.87461 4214 ft 232 kts 343°
2026-05-05 20:36 45.22224 8.86865 4029 ft 228 kts 344°
2026-05-05 20:36 45.23752 8.86280 3985 ft 227 kts 344°
2026-05-05 20:36 45.25273 8.85698 3998 ft 225 kts 345°
2026-05-05 20:36 45.26774 8.85123 3992 ft 223 kts 345°
2026-05-05 20:37 45.28272 8.84550 3987 ft 223 kts 345°
2026-05-05 20:37 45.29763 8.83979 3987 ft 222 kts 345°
2026-05-05 20:37 45.31249 8.83409 3993 ft 220 kts 345°
2026-05-05 20:37 45.32728 8.82842 3995 ft 220 kts 345°
2026-05-05 20:38 45.34202 8.82276 3995 ft 219 kts 345°
2026-05-05 20:38 45.35672 8.81712 4001 ft 219 kts 345°
2026-05-05 20:38 45.37142 8.81147 4003 ft 219 kts 345°
2026-05-05 20:38 45.38619 8.80580 4005 ft 220 kts 345°
2026-05-05 20:39 45.40083 8.80017 4005 ft 221 kts 345°
2026-05-05 20:39 45.41572 8.79440 4001 ft 222 kts 345°
2026-05-05 20:39 45.43077 8.78910 4003 ft 223 kts 347°
2026-05-05 20:39 45.44556 8.78470 4012 ft 210 kts 349°
2026-05-05 20:40 45.45966 8.78076 3843 ft 204 kts 349°
2026-05-05 20:40 45.47351 8.77693 3587 ft 202 kts 349°
2026-05-05 20:40 45.48718 8.77315 3337 ft 199 kts 349°
2026-05-05 20:40 45.50064 8.76941 3078 ft 195 kts 349°
2026-05-05 20:41 45.51378 8.76577 2805 ft 190 kts 350°
2026-05-05 20:41 45.52655 8.76223 2547 ft 184 kts 350°
2026-05-05 20:41 45.53883 8.75882 2314 ft 175 kts 350°
2026-05-05 20:41 45.55042 8.75561 2080 ft 165 kts 350°
2026-05-05 20:42 45.56151 8.75254 1859 ft 161 kts 351°
2026-05-05 20:42 45.57250 8.74949 1663 ft 160 kts 350°
2026-05-05 20:42 45.58304 8.74657 1415 ft 150 kts 349°
2026-05-05 20:42 45.59357 8.74354 1680 ft 165 kts 349°
2026-05-05 20:43 45.60527 8.74018 2391 ft 175 kts 349°
2026-05-05 20:43 45.61761 8.73679 3191 ft 187 kts 349°
2026-05-05 20:43 45.63072 8.73321 3708 ft 197 kts 349°
2026-05-05 20:43 45.64519 8.73138 3957 ft 219 kts 12°
2026-05-05 20:44 45.65766 8.74227 3985 ft 213 kts 57°
2026-05-05 20:44 45.66399 8.76141 4015 ft 216 kts 69°
2026-05-05 20:44 45.66975 8.78151 4017 ft 220 kts 69°
2026-05-05 20:44 45.67555 8.80152 4008 ft 220 kts 69°
2026-05-05 20:45 45.68706 8.84132 3990 ft 213 kts 76°
2026-05-05 20:45 45.68669 8.86173 4012 ft 206 kts 110°
2026-05-05 20:45 45.68092 8.88055 3988 ft 209 kts 127°
2026-05-05 20:46 45.66901 8.89161 4018 ft 213 kts 171°
2026-05-05 20:46 45.65411 8.88929 4025 ft 221 kts 193°
2026-05-05 20:46 45.63902 8.88429 4006 ft 223 kts 191°
2026-05-05 20:46 45.62387 8.87970 3997 ft 223 kts 192°
2026-05-05 20:47 45.60862 8.87781 3986 ft 220 kts 169°
2026-05-05 20:47 45.59378 8.88266 4001 ft 219 kts 167°
2026-05-05 20:47 45.57891 8.88716 4000 ft 218 kts 168°
2026-05-05 20:47 45.56406 8.89140 3996 ft 218 kts 168°
2026-05-05 20:48 45.54922 8.89552 3994 ft 217 kts 168°
2026-05-05 20:48 45.53440 8.89958 3993 ft 216 kts 168°
2026-05-05 20:48 45.51963 8.90362 3995 ft 216 kts 168°
2026-05-05 20:48 45.50463 8.90772 4008 ft 224 kts 169°
2026-05-05 20:49 45.48914 8.91194 4001 ft 227 kts 169°
2026-05-05 20:49 45.47365 8.91615 3991 ft 227 kts 168°
2026-05-05 20:49 45.45819 8.92036 3987 ft 226 kts 169°
2026-05-05 20:49 45.44287 8.92450 3975 ft 220 kts 169°
2026-05-05 20:50 45.42816 8.92845 3970 ft 210 kts 169°
2026-05-05 20:50 45.41399 8.93228 3987 ft 206 kts 169°
2026-05-05 20:50 45.39991 8.93610 3988 ft 206 kts 169°
2026-05-05 20:50 45.38587 8.93990 3991 ft 205 kts 169°
2026-05-05 20:51 45.37188 8.94371 3998 ft 205 kts 169°
2026-05-05 20:51 45.35785 8.94750 3995 ft 205 kts 169°
2026-05-05 20:51 45.34380 8.95131 3989 ft 205 kts 169°
2026-05-05 20:51 45.32978 8.95510 3993 ft 205 kts 170°
2026-05-05 20:52 45.31580 8.95888 3989 ft 204 kts 169°
2026-05-05 20:52 45.30185 8.96266 3996 ft 204 kts 169°
2026-05-05 20:52 45.28791 8.96645 3997 ft 204 kts 169°
2026-05-05 20:52 45.27415 8.97019 3983 ft 204 kts 169°
2026-05-05 20:53 45.26018 8.97398 3971 ft 204 kts 169°
2026-05-05 20:53 45.24622 8.97772 3974 ft 204 kts 172°
2026-05-05 20:53 45.23236 8.97564 3963 ft 202 kts 206°
2026-05-05 20:53 45.22224 8.96223 3982 ft 205 kts 242°
2026-05-05 20:54 45.21950 8.94235 3997 ft 211 kts 270°
2026-05-05 20:54 45.22111 8.92142 3970 ft 217 kts 283°
2026-05-05 20:54 45.22899 8.90333 3979 ft 220 kts 316°
2026-05-05 20:54 45.24112 8.89007 3982 ft 220 kts 323°
2026-05-05 20:55 45.25351 8.87726 3972 ft 220 kts 323°
2026-05-05 20:55 45.26588 8.86456 3990 ft 219 kts 323°
2026-05-05 20:55 45.27825 8.85192 3983 ft 218 kts 323°
2026-05-05 20:55 45.29054 8.83937 3989 ft 217 kts 323°
2026-05-05 20:56 45.30277 8.82695 3993 ft 216 kts 326°
2026-05-05 20:56 45.31670 8.81963 4003 ft 214 kts 353°
2026-05-05 20:56 45.33150 8.81642 4002 ft 217 kts 348°
2026-05-05 20:56 45.34640 8.81205 4011 ft 220 kts 348°
2026-05-05 20:57 45.36147 8.80767 4006 ft 221 kts 348°
2026-05-05 20:57 45.37659 8.80354 4001 ft 221 kts 349°
2026-05-05 20:57 45.39172 8.79954 3997 ft 221 kts 349°
2026-05-05 20:57 45.40684 8.79543 3996 ft 221 kts 349°
2026-05-05 20:58 45.42194 8.79126 3998 ft 221 kts 349°
2026-05-05 20:58 45.43699 8.78708 3997 ft 220 kts 349°
2026-05-05 20:58 45.45160 8.78302 3959 ft 209 kts 349°
2026-05-05 20:58 45.46568 8.77912 3737 ft 204 kts 349°
2026-05-05 20:59 45.47944 8.77530 3486 ft 199 kts 349°
2026-05-05 20:59 45.49284 8.77158 3224 ft 193 kts 349°
2026-05-05 20:59 45.50572 8.76801 2960 ft 189 kts 349°
2026-05-05 20:59 45.51850 8.76446 2715 ft 186 kts 350°
2026-05-05 21:00 45.53116 8.76095 2455 ft 184 kts 350°
2026-05-05 21:00 45.54351 8.75753 2214 ft 177 kts 350°
2026-05-05 21:00 45.55528 8.75426 1973 ft 167 kts 350°
2026-05-05 21:00 45.56629 8.75121 1767 ft 157 kts 351°
2026-05-05 21:01 45.57678 8.74830 1543 ft 149 kts 350°
2026-05-05 21:01 45.58680 8.74553 1334 ft 145 kts 349°
2026-05-05 21:01 45.59664 8.74278 1139 ft 144 kts 348°
2026-05-05 21:01 45.60644 8.74008 973 ft 143 kts 348°
2026-05-05 21:02 45.61613 8.73741 803 ft 140 kts 348°
2026-05-05 21:02 45.62516 8.73486 744 ft 111 kts 349°
2026-05-05 21:02 45.63067 8.73321 741 ft 48 kts 341°
2026-05-05 21:02 45.63209 8.73163 748 ft 23 kts 314°
2026-05-05 21:03 45.63301 8.72979 750 ft 24 kts 304°
2026-05-05 21:03 45.63394 8.72778 749 ft 24 kts 297°
2026-05-05 21:03 45.63394 8.72554 750 ft 23 kts 256°
2026-05-05 21:03 45.63366 8.72335 748 ft 22 kts 261°
2026-05-05 21:04 45.63336 8.72116 748 ft 22 kts 258°
2026-05-05 21:04 45.63322 8.72017 750 ft 2 kts 259°
2026-05-05 21:04 45.63321 8.72006 749 ft 0 kts 258°
2026-05-05 21:05 45.63318 8.71997 748 ft 4 kts 243°
2026-05-05 21:05 45.63271 8.71970 751 ft 12 kts 170°
2026-05-05 21:05 45.63174 8.71997 749 ft 15 kts 168°
2026-05-05 21:06 45.63070 8.72027 751 ft 14 kts 169°
2026-05-05 21:06 45.63047 8.72035 747 ft 0 kts 164°
2026-05-05 21:06 45.63028 8.72040 749 ft 8 kts 170°
2026-05-05 21:07 45.62929 8.72065 750 ft 18 kts 169°
2026-05-05 21:07 45.62817 8.72097 751 ft 11 kts 168°
2026-05-05 21:07 45.62812 8.72098 750 ft 0 kts 168°
2026-05-05 21:07 45.62809 8.72099 747 ft 3 kts 168°
2026-05-05 21:08 45.62774 8.72109 750 ft 6 kts 169°
2026-05-05 21:08 45.62735 8.72118 748 ft 6 kts 173°
2026-05-05 21:08 45.62689 8.72093 749 ft 9 kts 229°
2026-05-05 21:08 45.62672 8.72005 751 ft 10 kts 260°
2026-05-05 21:09 45.62660 8.71908 752 ft 10 kts 259°
2026-05-05 21:09 45.62667 8.71824 751 ft 5 kts 325°
2026-05-05 21:09 45.62704 8.71815 748 ft 5 kts 351°
2026-05-05 21:09 45.62742 8.71805 751 ft 6 kts 348°
2026-05-05 21:10 45.62780 8.71793 751 ft 6 kts 350°
2026-05-05 21:10 45.62817 8.71784 750 ft 3 kts 346°
2026-05-05 21:10 45.62828 8.71768 749 ft 3 kts 306°
2026-05-05 21:10 45.62831 8.71733 751 ft 5 kts 258°
2026-05-05 21:11 45.62824 8.71681 749 ft 4 kts 259°
2026-05-05 21:11 45.62822 8.71667 750 ft 0 kts 258°